Regional Weather Roundup
Issued by NWS

Home | Current Version | Previous Version | Graphics & Text | Print | Product List | Glossary On
Versions: 1 2 3 4 5 6 7 8 9 10 11 12 13 14 15 16 17 18 19 20 21 22 23 24 25 26 27 28 29 30 31 32 33 34 35 36 37 38 39 40 41 42 43 44 45 46 47 48 49 50
947
ASUS43 KBIS 010710
RWRND

NORTH DAKOTA REGIONAL WEATHER ROUNDUP
NATIONAL WEATHER SERVICE BISMARCK ND
200 AM CDT SAT OCT 01 2016

NOTE: "FAIR" INDICATES FEW OR NO CLOUDS BELOW 12,000 FEET WITH NO
SIGNIFICANT WEATHER AND/OR OBSTRUCTIONS TO VISIBILITY.


NDZ001>003-009>011-017-010800-
NORTHWEST NORTH DAKOTA

CITY           SKY/WX    TMP DP  RH WIND       PRES   REMARKS
WILLISTON      CLEAR     50  46  86 N5        29.99S
MINOT          CLEAR     51  46  83 SE6       30.05R
MINOT AFB      CLEAR     49  46  87 SE8       30.04S
$$

NDZ018>021-031>035-040>046-010800-
SOUTHWEST NORTH DAKOTA

CITY           SKY/WX    TMP DP  RH WIND       PRES   REMARKS
BISMARCK       PTCLDY    60  46  59 SE10      30.06S
DICKINSON      CLEAR     50  44  80 SE10      29.99S
GARRISON         N/A     57  47  69 SE8       30.04S
HETTINGER ARPT CLEAR     51  44  77 E6        30.02S
$$

NDZ004>008-012>016-024-026-027-054-010800-
NORTHEAST NORTH DAKOTA

CITY           SKY/WX    TMP DP  RH WIND       PRES   REMARKS
GRAND FORKS    PTCLDY    54  48  80 SE6       30.17S
GRND FRKS AFB  CLOUDY    53  49  87 S5        30.17S
DEVILS LAKE    CLOUDY    58  49  72 SE13      30.14S
$$

NDZ022-023-025-028>030-036>039-047>053-010800-
SOUTHEAST NORTH DAKOTA

CITY           SKY/WX    TMP DP  RH WIND       PRES   REMARKS
FARGO          PTCLDY    56  48  74 SE10      30.17S
JAMESTOWN      CLOUDY    55  47  74 SE10      30.13F
$$





USA.gov is the U.S. government's official web portal to all federal, state and local government web resources and services.